This is the latest recevied weather packets stored in our database for station/object WC4PEM-12. If no packets are shown the sender has not sent any weather packets the latest 10 day(s).
| Time | Temp. | Humidity | Pressure | Rain* | Wind** | Luminosity | Snow |
|---|---|---|---|---|---|---|---|
| 1778183869 | 34.44° C | 37% | 1013.4 hPa | 0 mm | - | - | - |
| 1778183569 | 34.44° C | 37% | 1013.4 hPa | 0 mm | - | - | - |
| 1778183269 | 34.44° C | 38% | 1013.6 hPa | 0 mm | - | - | - |
| 1778182969 | 34.44° C | 39% | 1013.6 hPa | 0 mm | - | - | - |
| 1778182669 | 33.33° C | 41% | 1013.6 hPa | 0 mm | - | - | - |
| 1778182503 | 33.89° C | 41% | 1013.6 hPa | 0 mm | - | - | - |
| 1778182369 | 33.89° C | 41% | 1013.6 hPa | 0 mm | - | - | - |
| 1778182069 | 33.33° C | 42% | 1013.7 hPa | 0 mm | - | - | - |
| 1778181769 | 33.33° C | 41% | 1013.8 hPa | 0 mm | - | - | - |
| 1778181469 | 33.33° C | 40% | 1013.9 hPa | 0 mm | - | - | - |
| 1778181251 | 33.33° C | 42% | 1014 hPa | 0 mm | - | - | - |
| 1778181169 | 33.33° C | 42% | 1014 hPa | 0 mm | - | - | - |
| 1778180869 | 33.33° C | 43% | 1013.8 hPa | 0 mm | - | - | - |
| 1778180569 | 33.33° C | 44% | 1014.1 hPa | 0 mm | - | - | - |
| 1778180340 | 32.78° C | 46% | 1014.2 hPa | 0 mm | - | - | - |
| 1778180269 | 32.78° C | 46% | 1014.2 hPa | 0 mm | - | - | - |
| 1778179969 | 33.33° C | 47% | 1014.4 hPa | 0 mm | - | - | - |
| 1778179739 | 32.78° C | 47% | 1014.3 hPa | 0 mm | - | - | - |
| 1778179669 | 32.78° C | 47% | 1014.3 hPa | 0 mm | - | - | - |
| 1778179468 | 32.78° C | 49% | 1014.4 hPa | 0 mm | - | - | - |
| 1778179369 | 32.78° C | 49% | 1014.4 hPa | 0 mm | - | - | - |
| 1778179069 | 32.78° C | 49% | 1014.5 hPa | 0 mm | - | - | - |
| 1778178769 | 32.78° C | 49% | 1014.6 hPa | 0 mm | - | - | - |
| 1778178469 | 32.78° C | 50% | 1014.8 hPa | 0 mm | - | - | - |
| 1778178169 | 32.78° C | 49% | 1014.8 hPa | 0 mm | - | - | - |
* Rain latest hour (hover to see other rain measurements)
** Current wind speed in m/s (hover to see current wind gust speed)